Location: Balaclava NSW 2575, Australia
(34.4510°S, 150.4953°E)
Time: 08:07:48
(UTC+10:00)

ISS - Pass Details

Date: 23 May 2021
Orbit: 417 x 422 km, 51.6° (Epoch: 17 June)

Event Time Altitude Azimuth Distance (km) Brightness Sun altitude
Exits shadow 06:02:09 12° 276° (W) 1,390 -1.7 -10.0°
Maximum altitude 06:04:50 30° 216° (SW) 801 -2.8 -9.5°
Drops below altitude 10° 06:07:55 10° 153° (SSE) 1,530 -0.8 -8.9°
Sets 06:10:12 0° 141° (SE) 2,400 0.4 -8.4°
